Regional Weather Roundup
Issued by NWS Raleigh/Durham, NC

Home | Current Version | Previous Version | Text Only | Print | Product List | Glossary On
Versions: 1 2 3 4 5 6 7 8 9 10 11 12 13 14 15 16 17 18 19 20 21 22 23 24 25 26 27 28 29 30 31 32 33 34 35 36 37 38 39 40 41 42 43 44 45 46 47 48 49 50
000
ASUS42 KRAH 020310
RWRRAH
NORTH CAROLINA WEATHER ROUNDUP
NATIONAL WEATHER SERVICE RALEIGH NC
1100 PM EDT WED APR 01 2015

NOTE: "FAIR" INDICATES FEW OR NO CLOUDS BELOW 12,000 FEET WITH NO
SIGNIFICANT WEATHER AND/OR OBSTRUCTIONS TO VISIBILITY.

NCZ001-053-055-056-065-067-020400-
WESTERN NORTH CAROLINA

CITY           SKY/WX    TMP DP  RH WIND       PRES   REMARKS
ASHEVILLE      CLEAR     58  33  39 S3        30.20R
JEFFERSON      PTCLDY    53  19  26 CALM      30.20S
MORGANTON      CLEAR     46  33  60 CALM      30.23R
HICKORY        CLEAR     60  22  23 CALM      30.18R
RUTHERFORDTON  CLEAR     57  29  34 N3        30.18R
MOUNT AIRY     CLEAR     58  25  27 E6        30.22R
BOONE          CLEAR     43  28  53 CALM      30.22R
$$

NCZ021-022-025-041-071-084-088-020400-
CENTRAL NORTH CAROLINA

CITY           SKY/WX    TMP DP  RH WIND       PRES   REMARKS
CHARLOTTE      PTCLDY    63  23  21 SE12G23   30.18R
GREENSBORO     CLEAR     55  28  35 SE8       30.20R
WINSTON-SALEM  CLEAR     54  30  40 SE5       30.22R
RALEIGH-DURHAM PTCLDY    54  31  41 SE6       30.25R
FORT BRAGG     CLEAR     54  34  46 SE5       30.24R
FAYETTEVILLE   CLEAR     53  36  52 SE10      30.25R
BURLINGTON     CLEAR     53  31  42 SE3       30.22R
LAURINBURG     CLEAR     54  38  54 SE8       30.24R
$$

NCZ011-015-027-028-043-044-047-080-103-020400-
NORTHEASTERN NORTH CAROLINA

CITY           SKY/WX    TMP DP  RH WIND       PRES   REMARKS
ROCKY MT-WILSO CLEAR     51  33  50 SE5       30.27R
GREENVILLE     CLEAR     50  39  66 SE5       30.29R
WASHINGTON     CLEAR     45  35  69 SE7       30.30R
ELIZABETH CITY CLEAR     41  33  73 CALM      30.31R
MANTEO         CLEAR     42  32  68 E6        30.31R
CAPE HATTERAS  CLEAR     40  31  70 NE6       30.31R
$$

NCZ078-087-090-091-093-098-101-020400-
SOUTHEASTERN NORTH CAROLINA

CITY           SKY/WX    TMP DP  RH WIND       PRES   REMARKS
LUMBERTON      CLEAR     54  43  66 SE9       30.25R
GOLDSBORO      CLEAR     51  42  72 SE7       30.25R
KINSTON        CLEAR     49  38  65 SE6       30.29R
KENANSVILLE    CLEAR     47  38  71 SE3       30.29R
NEW BERN       CLEAR     48  38  68 E8        30.30R
CHERRY POINT   CLEAR     45  36  70 E8        30.31R
BEAUFORT       FAIR      49  34  56 NE8       30.31R
JACKSONVILLE   CLEAR     50  38  63 E10       30.29R
WILMINGTON     CLEAR     53  42  66 E9        30.29R
$$



USA.gov is the U.S. government's official web portal to all federal, state and local government web resources and services.